Previsão horária em Alio

Hoje, 15 Junho, Terça-feira

Tempo Temperatura Precipitação Vento Pressão Humidade
00:00 +24°C° 0 mm 1 m/s 738 mmHg 44%
01:00 +23°C° 0 mm 1 m/s 738 mmHg 45%
02:00 +23°C° 0 mm 1 m/s 738 mmHg 46%
03:00 +23°C° 0 mm 1 m/s 738 mmHg 47%
04:00 +24°C° 0 mm 1 m/s 738 mmHg 44%
05:00 +24°C° 0 mm 1 m/s 739 mmHg 42%
06:00 +25°C° 0 mm 1 m/s 739 mmHg 39%
07:00 +27°C° 0 mm 1 m/s 739 mmHg 34%
08:00 +30°C° 0 mm 1 m/s 739 mmHg 29%
09:00 +32°C° 0 mm 1 m/s 739 mmHg 24%
10:00 +32°C° 0 mm 2 m/s 739 mmHg 24%
11:00 +34°C° 0 mm 3 m/s 739 mmHg 24%
12:00 +35°C° 0 mm 4 m/s 739 mmHg 25%
13:00 +34°C° 0 mm 4 m/s 738 mmHg 26%
14:00 +34°C° 0 mm 5 m/s 738 mmHg 27%
15:00 +34°C° 0 mm 5 m/s 737 mmHg 28%
16:00 +32°C° 0 mm 4 m/s 737 mmHg 30%
17:00 +30°C° 0 mm 4 m/s 737 mmHg 33%
18:00 +29°C° 0 mm 3 m/s 737 mmHg 36%
19:00 +28°C° 0 mm 3 m/s 737 mmHg 40%
20:00 +26°C° 0 mm 2 m/s 738 mmHg 45%
21:00 +25°C° 0 mm 1 m/s 738 mmHg 50%
22:00 +25°C° 0 mm 1 m/s 738 mmHg 50%
23:00 +24°C° 0 mm 1 m/s 737 mmHg 51%

Amanhã, 16 Junho, Quarta-feira

Tempo Temperatura Precipitação Vento Pressão Humidade
00:00 +24°C° 0 mm 1 m/s 737 mmHg 52%
01:00 +24°C° 0 mm 1 m/s 737 mmHg 52%
02:00 +24°C° 0 mm 1 m/s 737 mmHg 52%
03:00 +24°C° 0 mm 1 m/s 736 mmHg 52%
04:00 +24°C° 0 mm 1 m/s 736 mmHg 51%
05:00 +25°C° 0 mm 1 m/s 736 mmHg 49%
06:00 +24°C° 0 mm 0 m/s 736 mmHg 47%
07:00 +28°C° 0 mm 1 m/s 736 mmHg 43%
08:00 +30°C° 0 mm 1 m/s 736 mmHg 39%
09:00 +31°C° 0 mm 2 m/s 736 mmHg 35%
10:00 +33°C° 0 mm 3 m/s 736 mmHg 33%
11:00 +34°C° 0 mm 3 m/s 735 mmHg 31%
12:00 +34°C° 0 mm 4 m/s 735 mmHg 29%
13:00 +34°C° 0 mm 4 m/s 735 mmHg 31%
14:00 +33°C° 0 mm 5 m/s 735 mmHg 33%
15:00 +32°C° 0 mm 5 m/s 735 mmHg 35%
16:00 +30°C° 0 mm 4 m/s 735 mmHg 38%
17:00 +29°C° 0 mm 4 m/s 734 mmHg 41%
18:00 +28°C° 0 mm 3 m/s 734 mmHg 44%
19:00 +27°C° 0 mm 3 m/s 734 mmHg 47%
20:00 +26°C° 0 mm 2 m/s 734 mmHg 51%
21:00 +25°C° 0 mm 2 m/s 734 mmHg 54%
22:00 +25°C° 0 mm 2 m/s 734 mmHg 55%
23:00 +24°C° 0 mm 2 m/s 734 mmHg 56%

Depois de amanhã, 17 Junho, Quinta-feira

Tempo Temperatura Precipitação Vento Pressão Humidade
00:00 +24°C° 0 mm 2 m/s 735 mmHg 57%
01:00 +24°C° 0 mm 2 m/s 734 mmHg 58%
02:00 +24°C° 0 mm 2 m/s 733 mmHg 59%
03:00 +24°C° 0 mm 3 m/s 733 mmHg 59%
04:00 +23°C° 0.2 mm 4 m/s 733 mmHg 62%
05:00 +23°C° 0.2 mm 4 m/s 733 mmHg 64%
06:00 +22°C° 0.2 mm 5 m/s 733 mmHg 66%
07:00 +23°C° 0.4 mm 4 m/s 733 mmHg 65%
08:00 +23°C° 0.4 mm 4 m/s 733 mmHg 63%
09:00 +24°C° 0.4 mm 3 m/s 734 mmHg 61%
10:00 +25°C° 0.1 mm 3 m/s 733 mmHg 57%
11:00 +27°C° 0.1 mm 4 m/s 733 mmHg 53%
12:00 +29°C° 0.1 mm 4 m/s 733 mmHg 49%
13:00 +28°C° 0.1 mm 4 m/s 733 mmHg 51%
14:00 +28°C° 0.1 mm 4 m/s 733 mmHg 52%
15:00 +28°C° 0.1 mm 4 m/s 733 mmHg 54%
16:00 +27°C° 0.2 mm 4 m/s 733 mmHg 53%
17:00 +27°C° 0.2 mm 4 m/s 734 mmHg 51%
18:00 +26°C° 0.2 mm 4 m/s 734 mmHg 49%
19:00 +25°C° 0 mm 4 m/s 734 mmHg 51%
20:00 +24°C° 0 mm 3 m/s 735 mmHg 53%
21:00 +21°C° 0 mm 3 m/s 735 mmHg 55%
22:00 +21°C° 0 mm 2 m/s 735 mmHg 58%
23:00 +20°C° 0 mm 2 m/s 735 mmHg 61%

18 Junho, Sexta-feira

Tempo Temperatura Precipitação Vento Pressão Humidade
00:00 +20°C° 0 mm 2 m/s 735 mmHg 64%
01:00 +20°C° 0 mm 2 m/s 736 mmHg 62%
02:00 +20°C° 0 mm 2 m/s 736 mmHg 61%
03:00 +21°C° 0 mm 1 m/s 736 mmHg 60%
04:00 +21°C° 0 mm 1 m/s 736 mmHg 58%
05:00 +22°C° 0 mm 1 m/s 736 mmHg 56%
06:00 +23°C° 0 mm 2 m/s 736 mmHg 54%
07:00 +24°C° 0 mm 2 m/s 736 mmHg 50%
08:00 +26°C° 0 mm 3 m/s 737 mmHg 46%
09:00 +28°C° 0 mm 3 m/s 737 mmHg 42%
10:00 +28°C° 0 mm 4 m/s 737 mmHg 44%
11:00 +28°C° 0 mm 5 m/s 737 mmHg 45%
12:00 +29°C° 0 mm 5 m/s 737 mmHg 46%
13:00 +28°C° 0 mm 5 m/s 737 mmHg 47%
14:00 +28°C° 0 mm 5 m/s 737 mmHg 48%
15:00 +28°C° 0 mm 5 m/s 737 mmHg 49%
16:00 +27°C° 0.1 mm 5 m/s 737 mmHg 51%
17:00 +27°C° 0.1 mm 4 m/s 737 mmHg 52%
18:00 +26°C° 0.1 mm 4 m/s 737 mmHg 54%
19:00 +25°C° 0.1 mm 4 m/s 737 mmHg 58%
20:00 +24°C° 0.1 mm 3 m/s 737 mmHg 62%
21:00 +22°C° 0.1 mm 3 m/s 737 mmHg 66%
22:00 +22°C° 0 mm 3 m/s 737 mmHg 70%
23:00 +22°C° 0 mm 3 m/s 737 mmHg 74%

19 Junho, Sábado

Tempo Temperatura Precipitação Vento Pressão Humidade
00:00 +22°C° 0 mm 3 m/s 737 mmHg 78%
01:00 +22°C° 0.1 mm 4 m/s 737 mmHg 80%
02:00 +22°C° 0.1 mm 4 m/s 736 mmHg 82%
03:00 +22°C° 0.1 mm 5 m/s 736 mmHg 85%
04:00 +22°C° 0 mm 4 m/s 736 mmHg 81%
05:00 +22°C° 0 mm 3 m/s 735 mmHg 77%
06:00 +24°C° 0 mm 2 m/s 735 mmHg 74%
07:00 +25°C° 0 mm 3 m/s 735 mmHg 66%
08:00 +27°C° 0 mm 5 m/s 735 mmHg 58%
09:00 +29°C° 0 mm 6 m/s 736 mmHg 50%
10:00 +30°C° 0 mm 7 m/s 736 mmHg 46%
11:00 +32°C° 0 mm 8 m/s 736 mmHg 41%
12:00 +33°C° 0 mm 9 m/s 736 mmHg 36%
13:00 +33°C° 0 mm 7 m/s 735 mmHg 38%
14:00 +33°C° 0 mm 6 m/s 735 mmHg 39%
15:00 +32°C° 0 mm 4 m/s 735 mmHg 40%
16:00 +32°C° 0 mm 4 m/s 735 mmHg 40%
17:00 +31°C° 0 mm 3 m/s 734 mmHg 40%
18:00 +31°C° 0 mm 3 m/s 734 mmHg 40%
19:00 +30°C° 0 mm 3 m/s 735 mmHg 43%
20:00 +29°C° 0 mm 2 m/s 735 mmHg 46%
21:00 +27°C° 0 mm 2 m/s 735 mmHg 49%
22:00 +27°C° 0 mm 2 m/s 735 mmHg 50%
23:00 +27°C° 0 mm 2 m/s 735 mmHg 51%

20 Junho, Domingo

Tempo Temperatura Precipitação Vento Pressão Humidade
00:00 +27°C° 0 mm 3 m/s 735 mmHg 52%
01:00 +25°C° 0 mm 2 m/s 735 mmHg 56%
02:00 +24°C° 0 mm 2 m/s 734 mmHg 60%
03:00 +23°C° 0 mm 1 m/s 734 mmHg 65%
04:00 +24°C° 0.1 mm 2 m/s 734 mmHg 64%
05:00 +24°C° 0.1 mm 3 m/s 734 mmHg 64%
06:00 +24°C° 0.1 mm 3 m/s 735 mmHg 63%
07:00 +25°C° 0 mm 4 m/s 735 mmHg 62%
08:00 +25°C° 0 mm 4 m/s 735 mmHg 61%
09:00 +25°C° 0 mm 4 m/s 735 mmHg 59%
10:00 +26°C° 0 mm 4 m/s 735 mmHg 56%
11:00 +27°C° 0 mm 4 m/s 734 mmHg 53%
12:00 +28°C° 0 mm 4 m/s 734 mmHg 50%
13:00 +27°C° 0.1 mm 4 m/s 734 mmHg 53%
14:00 +27°C° 0.1 mm 4 m/s 734 mmHg 56%
15:00 +26°C° 0.1 mm 4 m/s 734 mmHg 59%
16:00 +25°C° 0.4 mm 4 m/s 733 mmHg 64%
17:00 +23°C° 0.4 mm 4 m/s 733 mmHg 69%
18:00 +21°C° 0.4 mm 5 m/s 733 mmHg 74%
19:00 +20°C° 2.4 mm 4 m/s 733 mmHg 78%
20:00 +20°C° 2.4 mm 4 m/s 733 mmHg 83%
21:00 +19°C° 2.4 mm 4 m/s 733 mmHg 87%
22:00 +19°C° 0.9 mm 4 m/s 733 mmHg 87%
23:00 +18°C° 0.9 mm 4 m/s 733 mmHg 86%
Mostrar mais